TDS-1

operational
NORAD ID: 40076 Int'l Des: 2014-037 Owner: UKTSB Country: UK
LEOCIRCULARRETROGRADE

About TDS-1

Description loading...

Live Position

Loading 3D Globe...

Upcoming Passes

Altitude History

Altitude vs Time

uPlot chart will show altitude changes over time

Two-Line Element Set

1 40076U 14037H 26061.50783324 .00012465 00000-0 74217-3 0 9991
2 40076 98.3756 43.3374 0004613 271.1472 88.9227 15.11376449632108
Epoch: Mar 2, 2026 • Age: 32 hours

Current Status

Altitude 546.5 km
Velocity 7.59 km/s
Sub-Earth Point 67.32°N, 32.55°W
Launch Date Jul 8, 2014
Age 11.6 years
Type other

Technical Details

Classification Payload
Mass 157.00 kg
Dry Mass 157.00 kg
Total Mass 157.00 kg
Length 1.00 m
Diameter 1.00 m
Span 1.00 m
Shape Box
Manufacturer SSTLA
Bus Type SSTL-150
Phase Status In Orbit
Owner/State UKTSB/UK

Large Constellations

Loading constellations...